TimeCST,TemperatureF,Dew PointF,Humidity,Sea Level PressureIn,VisibilityMPH,Wind Direction,Wind SpeedMPH,Gust SpeedMPH,PrecipitationIn,Events,Conditions,WindDirDegrees,DateUTC
12:15 AM,49.1,44.6,84,30.07,7.0,Calm,Calm,-,N/A,,Overcast,0,2012-11-20 06:15:00
12:35 AM,48.9,45.1,87,30.07,7.0,WSW,4.6,-,N/A,,Overcast,250,2012-11-20 06:35:00
12:55 AM,48.7,45.5,89,30.07,5.0,WSW,4.6,-,N/A,,Overcast,250,2012-11-20 06:55:00
1:15 AM,48.4,45.7,90,30.07,5.0,Calm,Calm,-,N/A,,Overcast,0,2012-11-20 07:15:00
1:35 AM,48.2,45.7,91,30.07,5.0,Calm,Calm,-,N/A,,Overcast,0,2012-11-20 07:35:00
1:55 AM,48.2,45.7,91,30.07,5.0,Calm,Calm,-,N/A,,Overcast,0,2012-11-20 07:55:00
2:15 AM,48.4,45.7,90,30.07,5.0,Calm,Calm,-,N/A,,Overcast,0,2012-11-20 08:15:00
2:35 AM,48.2,45.5,90,30.07,5.0,Calm,Calm,-,N/A,,Overcast,0,2012-11-20 08:35:00
5:14 AM,48.2,46.4,93,30.08,5.0,Calm,Calm,-,N/A,,Overcast,0,2012-11-20 11:14:00
5:55 AM,46.9,44.8,92,30.08,4.0,Calm,Calm,-,N/A,,Mostly Cloudy,0,2012-11-20 11:55:00
6:15 AM,46.8,45.0,93,30.08,4.0,WNW,5.8,-,N/A,,Mostly Cloudy,290,2012-11-20 12:15:00
6:35 AM,47.3,45.3,93,30.09,4.0,WNW,6.9,-,N/A,,Mostly Cloudy,290,2012-11-20 12:35:00
6:55 AM,46.8,45.0,93,30.10,2.5,WNW,5.8,-,N/A,,Clear,300,2012-11-20 12:55:00
7:15 AM,46.2,44.6,94,30.10,2.0,NW,4.6,-,N/A,,Clear,310,2012-11-20 13:15:00
7:35 AM,46.8,45.1,94,30.10,2.0,NW,6.9,-,N/A,,Clear,310,2012-11-20 13:35:00
7:55 AM,47.3,45.5,93,30.11,2.0,NW,4.6,-,N/A,,Scattered Clouds,310,2012-11-20 13:55:00
8:15 AM,48.2,46.4,93,30.11,3.0,NW,4.6,-,N/A,,Scattered Clouds,310,2012-11-20 14:15:00
8:35 AM,49.1,46.6,91,30.11,3.0,NW,5.8,-,N/A,,Scattered Clouds,320,2012-11-20 14:35:00
8:55 AM,49.1,46.4,90,30.11,4.0,NW,5.8,-,N/A,,Scattered Clouds,310,2012-11-20 14:55:00
9:15 AM,50.4,46.9,88,30.10,4.0,NW,4.6,-,N/A,,Clear,320,2012-11-20 15:15:00
9:35 AM,51.3,46.9,85,30.11,5.0,NW,6.9,-,N/A,,Clear,310,2012-11-20 15:35:00
9:55 AM,52.0,46.6,82,30.11,5.0,NNW,5.8,-,N/A,,Clear,330,2012-11-20 15:55:00
10:15 AM,53.2,46.9,79,30.11,5.0,NNW,5.8,-,N/A,,Clear,340,2012-11-20 16:15:00
10:35 AM,54.3,46.8,76,30.11,7.0,NW,3.5,-,N/A,,Clear,320,2012-11-20 16:35:00
10:55 AM,54.7,45.1,70,30.11,7.0,NNW,3.5,-,N/A,,Scattered Clouds,330,2012-11-20 16:55:00
11:15 AM,55.4,44.4,67,30.11,7.0,Calm,Calm,-,N/A,,Mostly Cloudy,0,2012-11-20 17:15:00
11:35 AM,55.0,43.7,66,30.10,7.0,Calm,Calm,-,N/A,,Scattered Clouds,0,2012-11-20 17:35:00
11:55 AM,55.9,43.5,63,30.10,7.0,NW,4.6,-,N/A,,Scattered Clouds,310,2012-11-20 17:55:00
12:15 PM,56.7,43.9,62,30.09,7.0,NNW,5.8,-,N/A,,Scattered Clouds,330,2012-11-20 18:15:00
12:55 PM,57.6,43.7,60,30.10,7.0,WNW,4.6,-,N/A,,Clear,300,2012-11-20 18:55:00
1:15 PM,57.9,43.9,60,30.09,7.0,Calm,Calm,-,N/A,,Clear,0,2012-11-20 19:15:00
1:35 PM,57.9,42.6,57,30.09,10.0,NNW,3.5,-,N/A,,Clear,330,2012-11-20 19:35:00
2:15 PM,58.1,42.8,57,30.09,10.0,NW,5.8,-,N/A,,Clear,310,2012-11-20 20:15:00
2:35 PM,57.9,43.7,59,30.09,10.0,NW,5.8,-,N/A,,Clear,320,2012-11-20 20:35:00
2:55 PM,57.4,43.9,61,30.10,10.0,NW,4.6,-,N/A,,Clear,310,2012-11-20 20:55:00
3:15 PM,56.8,43.9,62,30.10,10.0,NW,3.5,-,N/A,,Clear,310,2012-11-20 21:15:00
3:35 PM,56.1,44.6,65,30.10,10.0,Calm,Calm,-,N/A,,Clear,0,2012-11-20 21:35:00
3:55 PM,54.0,43.7,68,30.11,10.0,West,4.6,-,N/A,,Clear,280,2012-11-20 21:55:00
4:15 PM,53.2,43.5,70,30.11,10.0,West,3.5,-,N/A,,Clear,270,2012-11-20 22:15:00
4:35 PM,51.1,43.3,75,30.12,7.0,West,4.6,-,N/A,,Clear,280,2012-11-20 22:35:00
4:55 PM,46.4,40.8,81,30.12,7.0,Calm,Calm,-,N/A,,Clear,0,2012-11-20 22:55:00
5:15 PM,46.9,43.5,88,30.13,7.0,West,3.5,-,N/A,,Clear,280,2012-11-20 23:15:00
5:35 PM,43.9,42.1,93,30.14,5.0,Calm,Calm,-,N/A,,Clear,0,2012-11-20 23:35:00
5:55 PM,43.7,41.7,93,30.14,5.0,Calm,Calm,-,N/A,,Clear,0,2012-11-20 23:55:00
6:15 PM,44.6,43.0,94,30.14,5.0,Calm,Calm,-,N/A,,Clear,0,2012-11-21 00:15:00
6:35 PM,44.6,42.3,91,30.14,5.0,Calm,Calm,-,N/A,,Clear,0,2012-11-21 00:35:00
6:55 PM,45.0,42.6,91,30.15,5.0,Calm,Calm,-,N/A,,Clear,0,2012-11-21 00:55:00
7:15 PM,43.5,42.1,95,30.16,4.0,West,5.8,-,N/A,,Clear,280,2012-11-21 01:15:00
7:35 PM,44.4,42.8,94,30.16,4.0,West,4.6,-,N/A,,Clear,280,2012-11-21 01:35:00
7:55 PM,43.7,42.3,95,30.16,3.0,West,4.6,-,N/A,,Clear,280,2012-11-21 01:55:00
8:15 PM,43.3,42.3,96,30.16,2.0,Calm,Calm,-,N/A,,Clear,0,2012-11-21 02:15:00
8:35 PM,44.1,43.0,96,30.16,2.5,West,4.6,-,N/A,,Clear,280,2012-11-21 02:35:00
8:55 PM,42.3,41.2,96,30.16,0.5,Calm,Calm,-,N/A,,Mostly Cloudy,0,2012-11-21 02:55:00
9:15 PM,42.8,41.7,96,30.16,0.2,Calm,Calm,-,N/A,,Overcast,0,2012-11-21 03:15:00
9:35 PM,42.4,41.5,97,30.16,0.2,West,3.5,-,N/A,,Overcast,270,2012-11-21 03:35:00
9:55 PM,42.1,41.2,97,30.16,0.2,Calm,Calm,-,N/A,,Overcast,0,2012-11-21 03:55:00
10:15 PM,41.9,41.0,97,30.16,0.2,Calm,Calm,-,N/A,,Overcast,0,2012-11-21 04:15:00
10:35 PM,41.4,40.6,97,30.16,0.2,West,3.5,-,N/A,,Overcast,280,2012-11-21 04:35:00
10:55 PM,41.2,40.5,97,30.17,0.2,West,3.5,-,N/A,,Overcast,260,2012-11-21 04:55:00
11:15 PM,41.0,40.1,97,30.17,0.2,West,3.5,-,N/A,,Overcast,280,2012-11-21 05:15:00
11:35 PM,40.5,40.1,99,30.17,0.2,Calm,Calm,-,N/A,,Overcast,0,2012-11-21 05:35:00
11:55 PM,40.3,39.7,98,30.17,0.2,WSW,3.5,-,N/A,,Overcast,240,2012-11-21 05:55:00